KGZS

Details ICAO KGZS
Name ABERNATHY FLD
Region United States
Timezone America/Chicago (UTC-6.0)
Plans Departing 1
Arriving 0
Stats Elevation 685 ft / 209 m (AMSL)
Location 35.153707° -87.056815°
Runways 1
Magnetic Variation 3.441° W
Sunrise 2017-11-18 12:27:39 UTC / 2017-11-18 06:27:39 Local
Sunset 2017-11-18 22:42:11 UTC / 2017-11-18 16:42:11 Local
Advertisement - Login to hide

Runways

ID Width Length Bearing (true) Bearing (mag) Surface Threshold Offset Overrun Length
16 75 ft / 23 m 5,007 ft / 1,526 m 153.10° 156.54° Asphalt 0 ft / 0 m 0 ft / 0 m
34 75 ft / 23 m 5,007 ft / 1,526 m 333.10° 336.54° Asphalt 0 ft / 0 m 0 ft / 0 m

Map

Weather


0- 5 10 15 20 25 30 35+ Temperature / ° C

Clouds and Precipitation
Forecast for 2017-11-18 18:00 UTC. Updated 2 hours ago

Ground ~20,000 ft ~40,000 ft Winds

METAR

KGZS 181835Z AUTO 20015G23KT 10SM BKN023 BKN027 OVC032 20/16 A2964 RMK A01

TAF

Not found

Frequencies

Recorded 118.27 MHz AWOS 3
Unicom 122.80 MHz CTAF/UNICOM
Warning: Do not use this data for real-world aviation or navigation. No guarantee of current accuracy is given.